W4RJG Weather Reports


time (UTC)temp
F
wind
direction
speed
knots
gust
knots
rain 1hr
in
rain 24hr
in
rain mn
in
humidity
%
barometer
mb
20260506044004 68 307 1.7 8.7 0.00 0.00 0.00 69 1002.7
20260506043004 68 239 4.3 7.8 0.00 0.00 0.00 68 1002.7
20260506042004 68 345 5.2 8.7 0.00 0.00 0.00 68 1002.7
20260506033005 69 308 2.6 7.0 0.00 0.00 0.00 63 1002.4
20260506032004 69 306 2.6 4.3 0.00 0.00 0.00 62 1002.7
20260506031005 69 347 0.9 2.6 0.00 0.00 0.00 60 1002.7
20260506030004 69 227 0.9 4.3 0.00 0.00 0.00 59 1002.7
20260506024004 69 271 0.9 2.6 0.00 0.00 0.00 59 1002.7
20260506023005 69 209 1.7 2.6 0.00 0.00 0.00 58 1002.7
20260506021005 70 315 0.9 2.6 0.00 0.00 0.00 57 1002.7
20260506015004 71 84 1.7 2.6 0.00 0.00 0.00 55 1002.4
20260506014004 71 7 0.0 4.3 0.00 0.00 0.00 55 1002.4
20260506012005 71 220 0.9 2.6 0.00 0.00 0.00 54 1002.0
20260506011004 71 287 0.9 2.6 0.00 0.00 0.00 54 1002.0
20260506010004 72 305 0.0 2.6 0.00 0.00 0.00 53 1002.0
20260506005004 72 300 0.9 2.6 0.00 0.00 0.00 51 1001.7
20260506004005 73 338 0.0 2.6 0.00 0.00 0.00 50 1001.7
20260506003005 73 228 0.9 2.6 0.00 0.00 0.00 49 1001.7
20260506002004 74 234 0.9 2.6 0.00 0.00 0.00 46 1001.7
20260506001004 75 248 2.6 2.6 0.00 0.00 0.00 45 1001.7
20260506000005 76 41 0.0 2.6 0.00 0.00 0.00 44 1001.4
20260505235005 77 323 0.9 5.2 0.00 0.00 0.00 43 1001.4
20260505234004 78 352 4.3 7.8 0.00 0.00 0.00 42 1001.4
20260505233004 78 333 6.1 7.0 0.00 0.00 0.00 43 1001.4
20260505232004 78 324 2.6 6.1 0.00 0.00 0.00 43 1001.4
20260505231004 78 311 1.7 7.8 0.00 0.00 0.00 43 1001.4
20260505225004 79 358 4.3 7.8 0.00 0.00 0.00 42 1001.4
20260505224004 79 313 2.6 10.4 0.00 0.00 0.00 42 1001.4
20260505223004 80 316 4.3 7.0 0.00 0.00 0.00 41 1001.4
20260505222004 80 328 6.1 11.3 0.00 0.00 0.00 40 1001.7
20260505221003 80 348 7.8 11.3 0.00 0.00 0.00 39 1001.7
20260505220005 80 345 6.1 8.7 0.00 0.00 0.00 40 1001.7
20260505215003 81 218 2.6 11.3 0.00 0.00 0.00 39 1001.7
20260505211004 81 320 4.3 11.3 0.00 0.00 0.00 38 1001.7
20260505210005 82 277 2.6 7.8 0.00 0.00 0.00 36 1001.7
20260505205006 84 315 7.0 12.2 0.00 0.00 0.00 35 1002.0
20260505203008 82 335 7.0 17.4 0.00 0.00 0.00 34 1002.0
20260505202008 84 276 5.2 15.6 0.00 0.00 0.00 34 1002.0
20260505201005 83 322 1.7 11.3 0.00 0.00 0.00 35 1002.0
20260505200005 84 343 4.3 8.7 0.00 0.00 0.00 34 1002.0
20260505194005 83 349 11.3 13.0 0.00 0.00 0.00 34 1002.4
20260505193006 82 336 7.0 13.0 0.00 0.00 0.00 33 1002.6
20260505192004 82 354 8.7 11.3 0.00 0.00 0.00 33 1002.7
20260505191006 82 26 4.3 7.8 0.00 0.00 0.00 34 1002.7
20260505190005 82 311 2.6 7.0 0.00 0.00 0.00 36 1002.7
20260505185006 82 254 2.6 8.7 0.00 0.00 0.00 35 1003.0
20260505184006 83 5 5.2 8.7 0.00 0.00 0.00 34 1003.0
20260505183007 83 303 7.8 8.7 0.00 0.00 0.00 33 1003.0
20260505182005 83 316 4.3 10.4 0.00 0.00 0.00 32 1003.4
20260505181006 83 275 3.5 8.7 0.00 0.00 0.00 33 1003.4
20260505180005 83 337 2.6 10.4 0.00 0.00 0.00 35 1003.4
20260505175006 83 271 4.3 11.3 0.00 0.00 0.00 35 1003.7
20260505174007 83 322 2.6 10.4 0.00 0.00 0.00 35 1003.7
20260505172005 82 346 4.3 11.3 0.00 0.00 0.00 36 1003.8
20260505170007 81 101 4.3 10.4 0.00 0.00 0.00 37 1004.4
20260505165005 81 93 2.6 10.4 0.00 0.00 0.00 40 1004.4
20260505163009 80 349 4.3 8.7 0.00 0.00 0.00 39 1004.4
20260505162008 80 294 5.2 7.0 0.00 0.00 0.00 40 1004.7
20260505161007 80 6 1.7 7.0 0.00 0.00 0.00 42 1004.7
20260505153006 77 350 4.3 10.4 0.00 0.00 0.00 47 1005.1
20260505152005 78 333 4.3 6.1 0.00 0.00 0.00 46 1005.1
20260505151004 76 352 2.6 7.8 0.00 0.00 0.00 47 1005.1
20260505123005 62 320 2.6 2.6 0.00 0.00 0.00 72 1005.4
20260505121004 60 308 1.7 2.6 0.00 0.00 0.00 76 1005.1
20260505120005 59 344 2.6 2.6 0.00 0.00 0.00 77 1005.1
20260505115004 58 338 2.6 2.6 0.00 0.00 0.00 78 1005.1
20260505114004 57 344 0.0 1.7 0.00 0.00 0.00 80 1005.1
20260505113005 55 342 0.0 0.0 0.00 0.00 0.00 83 1004.7
20260505111004 53 220 0.9 1.7 0.00 0.00 0.00 86 1004.7
20260505102005 53 10 0.0 0.0 0.00 0.00 0.00 83 1004.4
20260505101007 54 280 0.0 0.9 0.00 0.00 0.00 81 1004.4
20260505100005 54 66 0.0 0.9 0.00 0.00 0.00 81 1004.4
20260505095004 54 357 0.0 0.0 0.00 0.00 0.00 80 1004.1
20260505094005 55 309 0.0 0.0 0.00 0.00 0.00 79 1004.1
20260505093004 55 279 0.0 0.0 0.00 0.00 0.00 79 1004.1
20260505091005 55 7 0.0 0.0 0.00 0.00 0.00 77 1004.1
20260505085005 56 337 0.0 0.0 0.00 0.00 0.00 75 1003.7
20260505083005 57 346 0.0 0.0 0.00 0.00 0.00 72 1003.7
20260505082005 58 300 0.0 2.6 0.00 0.00 0.00 70 1003.7
20260505081005 59 349 0.0 2.6 0.00 0.00 0.00 70 1003.7
20260505080005 59 334 0.0 1.7 0.00 0.00 0.00 68 1003.4
20260505075005 60 325 1.7 1.7 0.00 0.00 0.00 68 1003.4
20260505073005 60 331 0.9 1.7 0.00 0.00 0.00 66 1003.4
20260505072005 61 332 0.0 0.0 0.00 0.00 0.00 64 1003.0
20260505070005 62 350 0.9 0.9 0.00 0.00 0.00 62 1003.0
20260505064004 63 325 0.9 6.1 0.00 0.00 0.00 60 1003.0
20260505063013 63 254 2.6 2.6 0.00 0.00 0.00 59 1003.0
20260505062006 63 331 1.7 5.2 0.00 0.00 0.00 58 1003.0
20260505060009 63 279 2.6 5.2 0.00 0.00 0.00 57 1002.7
20260505055008 64 337 2.6 5.2 0.00 0.00 0.00 56 1002.7
20260505054008 64 312 2.6 5.2 0.00 0.00 0.00 55 1003.0
20260505052004 64 318 2.6 2.6 0.00 0.00 0.00 55 1003.0
20260505051004 64 283 0.0 4.3 0.00 0.00 0.00 54 1003.0